Temp
81 83 81 70 60 58 63 69 76 75 74 80 81 75 71 74 69 59 81 81 81 78 80 80 82 83 83 83 83 83 83 83 83 83 83 83 83 83 84 84 83 83 83 84 84 83 84 84 84
84 84 72 64 56 53 59 74 72 77 81 83 82 78 72 68 76 77 77 83 81 79 78 79 81 83 83 83 83 83 83 83 83 82 82 83 83 83 84 83 83 83 84 84 84 84 84 84 83
83 85 65 59 56 54 61 74 76 82 86 82 78 82 77 71 78 78 82 83 83 79 78 79 82 83 83 83 83 83 83 83 83 82 83 83 83 83 83 83 84 83 84 84 84 84 84 84 84
79 69 64 58 56 64 64 77 82 81 83 83 81 73 80 83 78 81 81 84 80 79 79 81 83 83 83 83 83 83 83 82 82 83 83 83 83 83 83 83 84 84 84 84 84 84 84 84 83
83 66 57 55 59 67 72 79 82 77 79 77 78 67 70 80 83 83 80 81 78 76 78 80 82 83 83 83 83 83 83 83 83 83 83 83 83 83 83 84 84 84 84 84 84 84 84 83 83
68 67 58 55 60 66 70 83 83 80 79 78 75 70 71 82 80 80 82 80 81 77 78 78 81 82 82 83 83 83 83 83 83 83 83 83 83 83 83 84 84 84 84 84 84 84 83 84 84
75 64 59 58 60 61 69 81 81 80 80 77 80 68 71 77 81 81 81 78 81 81 78 77 77 81 82 82 82 83 83 83 83 83 82 82 83 84 84 84 85 85 84 84 84 84 84 84 84
76 67 60 62 60 61 72 83 88 84 79 88 82 68 65 75 81 81 80 79 77 77 77 77 76 76 76 78 83 83 83 83 83 83 83 82 84 84 84 83 84 85 84 84 84 84 84 83 84
76 56 56 65 64 70 76 78 88 90 85 85 85 78 78 81 82 80 76 77 76 76 75 76 76 74 74 75 80 81 83 83 83 82 83 81 77 79 82 83 85 85 84 84 84 84 84 84 84
67 58 61 78 74 70 74 77 84 83 81 78 77 81 82 82 80 77 74 74 73 73 75 77 76 76 75 78 74 74 77 76 75 77 77 76 76 77 82 82 84 85 84 85 84 84 85 85 81
72 65 76 79 77 75 72 77 85 79 74 77 75 77 80 78 78 76 76 75 75 73 77 76 74 74 72 72 71 71 74 73 74 75 75 76 79 78 77 75 78 76 82 79 82 81 82 82 80
71 77 72 74 80 78 73 82 78 80 80 85 83 83 81 79 78 78 74 75 75 75 76 76 75 73 71 70 71 72 74 75 74 74 76 76 75 75 76 74 76 76 76 77 77 78 80 80 83
74 77 80 78 79 78 81 78 76 80 83 88 86 85 80 80 79 82 80 79 76 76 76 75 76 72 72 72 72 74 74 75 75 76 78 78 77 79 76 76 75 74 76 76 80 78 81 81 83
78 75 78 79 82 83 81 75 82 80 87 86 85 82 82 83 80 81 80 78 76 78 75 75 74 73 73 72 73 74 75 76 77 76 78 80 76 78 74 77 77 77 79 75 80 78 80 82 83
76 71 72 75 75 75 74 72 68 73 82 84 83 84 84 85 83 80 81 79 79 79 78 76 74 74 72 73 76 77 77 79 76 77 78 79 75 76 77 75 75 75 74 80 77 81 81 83 84
72 65 56 69 74 74 72 58 67 73 73 76 83 84 84 84 83 84 86 85 83 82 79 79 82 76 74 76 78 77 79 78 77 77 78 80 78 77 74 74 73 72 76 77 76 78 75 79 79
72 54 59 65 73 70 69 60 71 76 77 73 82 82 83 80 84 83 88 85 82 80 78 79 79 77 77 76 76 76 79 78 80 79 78 78 79 79 71 70 74 72 75 74 72 76 74 76 77
60 58 62 61 69 70 69 63 71 77 75 76 78 83 81 80 82 85 86 83 81 80 80 79 80 78 75 75 75 75 78 76 78 82 78 79 79 80 73 72 73 75 76 72 70 73 78 78 75
77 64 61 64 72 68 71 69 69 77 79 78 75 80 80 81 84 86 87 82 81 80 79 78 77 79 77 74 73 73 75 76 78 76 81 80 80 81 79 78 76 77 78 76 78 76 76 80 78
77 66 62 68 75 68 72 69 71 76 78 78 76 77 81 83 82 85 85 86 82 81 80 79 77 78 78 77 74 77 79 75 82 78 81 80 80 80 79 79 80 78 77 77 80 76 75 76 78
74 67 72 67 67 76 74 67 69 71 68 70 80 79 83 81 82 83 83 85 83 81 80 78 78 76 78 76 76 76 78 76 74 75 81 79 80 80 80 79 78 78 77 79 78 77 75 73 78
65 80 80 76 67 58 74 53 62 67 67 73 80 79 81 79 84 83 82 83 82 81 82 79 80 78 77 76 75 75 74 76 75 74 75 78 80 81 80 79 79 78 77 76 76 80 76 74 73
71 80 76 77 67 64 68 59 57 67 65 69 74 80 83 83 85 82 82 85 84 83 82 80 79 79 79 76 74 75 74 75 75 75 74 75 77 81 82 81 79 77 77 76 77 77 76 75 73
82 74 72 69 64 52 63 61 55 60 68 71 75 81 82 84 84 85 87 87 84 84 83 81 77 77 77 76 75 74 74 74 73 74 73 72 76 78 80 81 79 78 78 76 76 76 76 76 74
72 57 48 47 49 49 60 62 62 68 70 77 76 80 83 84 85 83 81 78 79 83 82 81 78 76 78 77 75 75 75 74 74 74 72 72 72 72 76 77 77 76 77 77 76 75 75 75 74
66 62 49 44 46 51 60 58 61 76 76 79 83 83 86 85 86 81 79 83 82 83 83 81 79 77 78 77 75 75 75 75 73 75 74 71 70 71 73 77 78 78 78 77 76 76 76 76 74
66 58 69 56 57 51 53 61 73 73 74 77 78 80 84 83 83 75 75 74 82 82 83 81 79 79 79 78 78 75 76 75 75 76 74 75 74 76 75 78 77 78 78 77 76 74 75 74 75
70 73 56 55 44 43 53 56 59 69 76 76 74 76 71 74 75 74 77 78 79 82 84 82 80 79 79 80 80 79 78 76 76 75 75 76 77 78 76 76 77 77 78 77 75 75 75 74 74
65 63 60 60 55 48 47 52 71 68 76 71 70 70 70 70 73 71 74 80 81 84 84 81 80 79 79 80 80 80 78 78 77 76 76 77 77 77 76 76 76 76 76 75 75 74 74 74 74
73 68 65 53 53 55 54 56 74 75 74 70 69 67 66 69 71 67 71 84 83 83 83 80 80 79 80 81 80 80 80 80 79 78 77 77 77 77 75 74 74 74 75 75 75 75 78 74 74
MSLP
1009.58 1010.59 1010.89 1011.29 1012.58 1011.72 1009.14 1007.22 1005.91 1005.25 1005.73 1005.93 1006.28 1007.29 1008.79 1009.28 1009.99 1011.83 1011.91 1012.93 1013.96 1014.51 1014.66 1014.77 1014.78 1014.82 1014.87 1014.97 1015.16 1015.23 1015.41 1015.68 1015.95 1016.15 1016.24 1016.54 1016.60 1016.71 1016.83 1017.02 1017.18 1017.32 1017.48 1017.42 1017.55 1017.59 1017.51 1017.51 1017.49
1009.56 1010.59 1011.17 1012.65 1013.13 1012.00 1008.66 1006.77 1006.07 1005.36 1005.75 1006.18 1006.99 1008.08 1008.76 1010.40 1010.63 1011.61 1012.54 1013.10 1013.61 1014.33 1014.72 1014.85 1014.93 1014.96 1014.99 1015.06 1015.26 1015.38 1015.47 1015.79 1016.10 1016.26 1016.26 1016.48 1016.64 1016.88 1017.02 1017.30 1017.40 1017.47 1017.51 1017.52 1017.59 1017.60 1017.56 1017.56 1017.69
1010.58 1010.82 1012.12 1013.02 1013.51 1011.78 1009.05 1006.64 1005.90 1005.41 1005.40 1006.26 1007.18 1007.86 1009.02 1010.64 1011.41 1011.88 1012.35 1013.09 1013.63 1014.33 1014.75 1014.87 1014.99 1015.08 1015.14 1015.18 1015.35 1015.54 1015.67 1015.94 1016.19 1016.29 1016.35 1016.57 1016.80 1017.06 1017.27 1017.41 1017.58 1017.64 1017.68 1017.71 1017.80 1017.83 1017.80 1017.72 1017.77
1010.54 1012.22 1013.86 1013.98 1012.74 1011.14 1009.56 1006.70 1005.81 1005.72 1006.26 1006.89 1007.22 1008.74 1009.86 1010.53 1011.32 1011.92 1012.71 1013.05 1013.73 1014.43 1014.70 1014.90 1015.07 1015.22 1015.35 1015.45 1015.55 1015.75 1015.87 1016.15 1016.29 1016.34 1016.51 1016.69 1016.95 1017.27 1017.54 1017.60 1017.63 1017.77 1017.86 1017.92 1017.99 1018.03 1017.94 1017.86 1017.73
1009.83 1012.77 1013.95 1013.72 1012.97 1010.51 1009.20 1007.04 1005.92 1006.36 1007.02 1007.82 1008.35 1010.49 1010.89 1011.27 1011.66 1012.21 1012.90 1013.36 1013.81 1014.57 1014.70 1014.97 1015.23 1015.44 1015.59 1015.69 1015.83 1015.94 1016.09 1016.15 1016.30 1016.37 1016.51 1016.82 1017.02 1017.45 1017.58 1017.74 1017.82 1017.99 1018.06 1018.19 1018.22 1018.18 1018.14 1017.89 1017.75
1010.22 1011.39 1012.42 1013.02 1012.48 1010.40 1008.96 1006.64 1005.93 1006.35 1007.29 1008.38 1009.31 1010.45 1011.53 1011.71 1011.99 1012.54 1012.86 1013.42 1013.72 1014.43 1014.90 1015.21 1015.48 1015.62 1015.82 1015.97 1016.02 1016.07 1016.16 1016.20 1016.37 1016.33 1016.57 1017.00 1017.22 1017.47 1017.56 1017.80 1018.03 1018.13 1018.27 1018.34 1018.38 1018.30 1018.20 1018.00 1017.74
1009.25 1010.78 1011.75 1012.11 1011.74 1011.14 1008.66 1006.76 1005.84 1005.99 1006.86 1007.93 1009.12 1010.58 1012.03 1012.10 1012.30 1012.74 1013.16 1013.62 1013.92 1014.35 1015.04 1015.53 1015.77 1015.83 1016.00 1016.09 1016.18 1016.15 1016.24 1016.40 1016.52 1016.53 1016.82 1017.14 1017.35 1017.58 1017.83 1017.95 1018.17 1018.30 1018.42 1018.40 1018.40 1018.27 1018.21 1018.05 1018.00
1008.19 1010.65 1011.17 1011.46 1011.11 1010.22 1007.50 1006.17 1005.42 1005.68 1006.52 1007.49 1008.25 1010.24 1011.90 1012.34 1012.37 1012.72 1013.29 1013.98 1014.33 1014.85 1015.20 1015.56 1015.93 1016.14 1016.29 1016.25 1016.20 1016.28 1016.30 1016.57 1016.65 1016.76 1016.90 1017.16 1017.39 1017.68 1018.03 1018.31 1018.35 1018.36 1018.42 1018.38 1018.36 1018.34 1018.27 1018.26 1018.34
1009.73 1011.44 1011.00 1010.02 1010.05 1009.42 1008.01 1007.16 1005.70 1005.69 1006.63 1007.34 1007.78 1009.70 1011.17 1011.92 1012.20 1012.86 1013.74 1014.27 1014.79 1015.16 1015.51 1015.61 1015.94 1016.30 1016.46 1016.45 1016.39 1016.41 1016.49 1016.70 1016.94 1016.98 1016.92 1017.50 1017.70 1017.90 1018.09 1018.39 1018.44 1018.38 1018.38 1018.30 1018.38 1018.39 1018.26 1018.30 1018.30
1009.25 1010.46 1010.07 1008.26 1008.47 1009.06 1007.81 1007.47 1005.82 1006.06 1006.87 1008.14 1009.21 1010.35 1011.24 1011.89 1012.33 1012.79 1013.58 1014.41 1014.98 1015.34 1015.71 1015.89 1015.89 1016.10 1016.45 1016.59 1016.87 1016.81 1016.86 1017.04 1017.34 1017.48 1017.41 1017.72 1017.92 1018.10 1018.02 1018.29 1018.36 1018.34 1018.19 1018.30 1018.53 1018.43 1018.19 1018.13 1018.12
1007.83 1008.00 1008.23 1007.45 1007.68 1007.87 1007.84 1007.58 1006.14 1006.50 1007.60 1007.99 1009.06 1010.09 1011.13 1011.87 1012.51 1012.95 1013.51 1013.92 1014.65 1015.13 1015.29 1015.79 1016.09 1016.18 1016.55 1016.86 1017.09 1017.13 1017.07 1017.28 1017.51 1017.66 1017.76 1017.83 1017.96 1018.02 1018.06 1018.41 1018.54 1018.67 1018.45 1018.41 1018.27 1018.27 1018.06 1017.97 1017.83
1006.82 1007.30 1008.48 1007.74 1006.85 1007.47 1008.17 1007.25 1006.60 1006.42 1007.09 1007.82 1008.67 1009.61 1010.51 1011.45 1011.98 1012.53 1013.31 1013.84 1014.27 1014.93 1015.33 1015.72 1015.92 1016.33 1016.72 1016.95 1017.13 1017.07 1017.16 1017.22 1017.42 1017.68 1017.99 1018.05 1018.09 1018.30 1018.30 1018.62 1018.45 1018.49 1018.45 1018.42 1018.32 1017.91 1017.84 1017.66 1017.34
1006.02 1006.10 1007.31 1007.62 1006.99 1007.10 1007.57 1007.67 1006.93 1006.94 1007.02 1007.80 1008.55 1009.29 1010.11 1010.79 1011.41 1012.04 1012.64 1013.43 1014.05 1014.41 1014.97 1015.62 1015.96 1016.37 1016.65 1016.90 1017.04 1017.07 1017.20 1017.24 1017.29 1017.52 1017.77 1017.70 1018.08 1018.03 1018.21 1018.11 1018.06 1018.55 1018.43 1018.43 1018.39 1017.92 1017.55 1017.31 1017.02
1005.86 1006.67 1007.78 1007.82 1007.29 1006.92 1007.12 1008.12 1007.41 1007.79 1007.22 1007.88 1008.28 1008.94 1009.24 1010.12 1011.02 1011.73 1012.51 1013.36 1013.86 1014.36 1014.75 1015.35 1015.84 1016.16 1016.56 1016.82 1016.93 1017.04 1017.14 1017.09 1017.37 1017.62 1017.33 1017.44 1017.93 1018.05 1018.02 1018.18 1018.27 1018.27 1018.24 1017.94 1017.85 1017.86 1017.55 1016.96 1016.83
1005.67 1007.31 1008.18 1007.65 1008.66 1008.30 1008.81 1008.44 1009.25 1008.84 1008.16 1007.87 1008.01 1008.35 1008.70 1009.36 1010.10 1010.78 1011.54 1012.47 1013.23 1013.84 1014.39 1015.11 1015.53 1015.93 1016.50 1016.73 1016.66 1016.94 1016.93 1017.01 1017.34 1017.27 1017.26 1017.48 1017.53 1017.61 1017.55 1017.94 1018.01 1017.93 1018.33 1017.39 1017.64 1017.15 1017.10 1017.14 1016.74
1006.22 1008.03 1009.18 1008.77 1008.77 1008.49 1009.86 1009.59 1009.21 1008.53 1008.82 1008.42 1007.56 1007.87 1008.26 1008.98 1009.53 1010.22 1010.81 1011.80 1012.90 1013.22 1013.78 1014.78 1015.12 1015.67 1016.05 1016.23 1016.22 1016.51 1016.55 1016.95 1016.95 1016.98 1017.26 1017.10 1017.07 1017.70 1017.69 1017.57 1017.75 1018.30 1017.58 1017.50 1017.79 1018.08 1017.79 1017.29 1017.30
1005.93 1008.63 1009.21 1008.72 1008.11 1007.77 1009.38 1009.41 1008.54 1008.60 1008.51 1007.99 1007.15 1007.33 1007.88 1008.59 1008.97 1009.51 1009.93 1011.08 1012.26 1012.92 1013.52 1014.33 1014.78 1015.27 1015.58 1015.66 1015.71 1015.94 1016.03 1016.44 1016.41 1016.62 1017.07 1017.00 1016.87 1017.67 1018.05 1017.83 1017.38 1018.04 1017.56 1017.74 1018.07 1018.20 1018.16 1018.00 1017.49
1006.53 1007.67 1008.22 1008.52 1007.74 1008.12 1007.94 1008.13 1007.99 1007.23 1007.62 1006.89 1006.68 1006.92 1007.59 1008.25 1008.77 1009.10 1009.74 1010.91 1012.05 1012.57 1013.09 1013.93 1014.42 1014.85 1015.23 1015.43 1015.72 1015.93 1016.12 1016.44 1016.41 1016.22 1016.79 1016.94 1016.75 1017.32 1017.92 1017.96 1017.90 1018.13 1017.90 1017.72 1018.10 1017.83 1017.69 1017.92 1017.70
1004.59 1006.25 1006.85 1007.26 1006.10 1007.49 1006.59 1006.73 1006.91 1006.90 1007.49 1007.16 1007.07 1006.63 1007.17 1007.66 1008.19 1008.82 1009.30 1010.52 1011.47 1012.14 1012.89 1013.42 1014.03 1014.38 1015.01 1015.38 1015.93 1016.09 1016.09 1016.30 1016.50 1016.43 1016.29 1016.59 1016.52 1016.81 1017.37 1018.02 1018.21 1018.06 1017.70 1017.70 1017.59 1017.84 1017.82 1017.97 1017.82
1003.28 1005.11 1005.46 1006.61 1005.90 1007.40 1005.31 1005.81 1006.66 1006.84 1007.40 1007.13 1007.11 1007.04 1006.80 1007.19 1007.99 1008.47 1009.08 1010.07 1010.86 1011.62 1012.18 1012.94 1013.40 1013.81 1014.36 1014.85 1015.29 1015.67 1015.58 1015.90 1015.90 1016.06 1016.25 1016.44 1016.68 1016.71 1017.25 1017.29 1017.50 1017.52 1017.62 1017.66 1017.84 1017.95 1018.00 1017.68 1017.64
1002.38 1002.72 1003.58 1004.69 1005.26 1005.46 1004.64 1005.30 1006.43 1007.15 1007.01 1007.51 1006.23 1006.61 1006.43 1006.70 1007.48 1008.26 1008.75 1009.55 1010.32 1011.12 1011.57 1012.31 1012.85 1013.42 1013.91 1014.29 1014.86 1015.40 1015.60 1015.69 1016.05 1016.25 1016.36 1016.45 1016.62 1016.77 1016.84 1017.16 1017.17 1017.47 1017.55 1017.90 1017.85 1017.88 1018.00 1018.24 1017.71
1001.90 1001.65 1002.25 1003.28 1004.10 1004.39 1003.80 1005.47 1005.89 1006.21 1007.00 1006.50 1005.82 1005.81 1005.90 1006.15 1006.78 1007.67 1008.49 1009.19 1009.90 1010.36 1011.18 1011.88 1012.24 1013.01 1013.58 1013.96 1014.47 1015.06 1015.35 1015.58 1015.90 1016.07 1016.26 1016.35 1016.43 1016.57 1016.75 1017.04 1017.23 1017.29 1017.35 1017.86 1017.93 1017.90 1018.01 1018.20 1018.16
1001.35 1001.16 1001.89 1002.79 1003.46 1004.00 1003.98 1004.61 1005.40 1005.83 1006.20 1005.64 1005.17 1004.79 1004.98 1005.32 1005.94 1006.95 1007.74 1008.44 1009.20 1010.01 1010.52 1011.42 1012.01 1012.70 1013.16 1013.68 1014.15 1014.66 1015.03 1015.31 1015.47 1015.85 1016.14 1016.19 1016.27 1016.26 1016.27 1016.62 1017.05 1017.50 1017.38 1017.65 1017.78 1017.87 1017.95 1018.04 1018.28
1000.74 1001.48 1002.04 1002.70 1003.50 1004.35 1003.95 1004.39 1005.32 1004.76 1003.99 1004.24 1004.07 1003.72 1003.92 1004.58 1005.49 1006.08 1006.86 1007.76 1008.59 1009.37 1010.18 1010.86 1011.73 1012.32 1012.88 1013.36 1013.83 1014.28 1014.62 1014.98 1015.44 1015.72 1015.98 1016.02 1016.12 1016.10 1015.95 1016.20 1016.59 1016.87 1017.23 1017.58 1017.57 1017.76 1017.89 1017.98 1018.06
1000.74 1002.00 1003.24 1003.97 1004.33 1004.62 1004.07 1003.98 1004.24 1003.75 1002.83 1002.04 1001.79 1002.45 1003.05 1003.63 1004.82 1005.82 1006.65 1007.54 1008.22 1009.44 1009.86 1010.61 1011.24 1012.01 1012.59 1013.08 1013.52 1013.87 1014.15 1014.55 1015.11 1015.34 1015.61 1015.95 1016.24 1016.24 1016.25 1016.20 1016.45 1016.77 1016.83 1017.16 1017.23 1017.59 1017.77 1017.86 1017.90
1000.89 1001.88 1003.38 1004.15 1004.72 1004.73 1004.10 1003.77 1003.45 1002.81 1002.30 1002.10 1001.33 1001.36 1002.50 1003.39 1004.23 1005.24 1006.38 1006.95 1007.53 1008.55 1009.46 1010.14 1010.86 1011.46 1012.17 1012.70 1013.17 1013.49 1013.82 1014.15 1014.51 1014.83 1015.24 1015.48 1015.80 1015.91 1016.00 1016.04 1015.90 1016.15 1016.45 1016.82 1017.09 1017.32 1017.45 1017.53 1017.64
1000.47 1001.42 1002.01 1003.40 1003.88 1004.58 1004.08 1003.19 1001.98 1001.04 1001.60 1001.74 1001.99 1002.25 1002.75 1003.48 1004.25 1005.48 1006.34 1006.44 1006.96 1007.90 1008.83 1009.50 1010.34 1010.91 1011.52 1012.11 1012.62 1013.15 1013.56 1013.89 1014.10 1014.26 1014.75 1015.04 1015.18 1015.23 1015.34 1015.50 1015.58 1015.70 1016.02 1016.30 1016.82 1017.06 1017.22 1017.18 1017.19
999.92 1000.72 1001.84 1002.77 1004.12 1004.50 1003.99 1002.72 1001.48 1000.98 1001.18 1002.30 1002.46 1002.90 1003.77 1004.13 1004.42 1006.07 1007.06 1006.46 1006.52 1007.36 1008.22 1009.16 1009.85 1010.32 1010.86 1011.46 1012.06 1012.59 1013.00 1013.33 1013.61 1013.86 1014.12 1014.36 1014.60 1014.86 1014.95 1015.05 1015.28 1015.56 1015.80 1016.09 1016.42 1016.53 1016.59 1016.74 1016.84
999.78 1000.44 1001.33 1002.32 1003.21 1003.73 1003.18 1002.18 1000.18 1000.47 1000.76 1003.15 1004.54 1004.15 1004.66 1004.49 1004.62 1006.94 1007.52 1007.71 1006.59 1006.94 1007.64 1008.56 1009.56 1010.22 1010.57 1010.98 1011.49 1012.02 1012.45 1012.80 1013.10 1013.33 1013.46 1013.58 1013.79 1014.11 1014.38 1014.55 1014.87 1015.14 1015.47 1015.85 1016.06 1016.09 1016.12 1016.28 1016.31
998.71 999.53 1000.46 1001.94 1002.57 1002.27 1001.82 1000.80 999.74 999.43 1001.14 1003.19 1004.81 1005.12 1005.07 1005.44 1004.73 1007.29 1007.10 1006.78 1006.09 1006.25 1007.20 1008.27 1009.13 1009.73 1010.02 1010.38 1010.88 1011.37 1011.80 1012.11 1012.47 1012.72 1012.74 1012.91 1013.14 1013.39 1013.79 1014.25 1014.53 1014.68 1014.90 1015.10 1015.45 1015.59 1015.58 1015.82 1015.90
Wind_Speed
7 7 5 6 4 2 5 10 8 10 16 18 18 17 17 10 3 6 11 19 18 13 9 7 12 14 14 14 13 13 13 12 11 12 13 11 11 10 9 9 10 11 13 13 12 11 10 9 9
4 6 5 3 4 2 5 10 8 6 17 17 18 19 20 19 13 15 15 21 19 13 7 6 11 13 14 14 13 13 13 12 12 11 10 10 10 9 10 10 10 12 12 13 12 12 10 8 8
7 7 4 4 2 3 5 9 7 7 13 18 9 10 9 15 9 4 15 20 18 13 9 9 13 13 14 14 14 13 12 12 10 10 10 9 10 9 10 10 11 13 12 12 11 10 8 5 4
6 7 3 1 7 11 6 7 12 8 18 18 14 13 15 12 6 10 17 19 16 14 10 12 15 16 15 14 13 12 12 11 10 9 10 9 10 9 9 11 11 13 11 11 10 9 6 2 1
4 5 3 1 4 10 10 11 10 18 19 19 16 14 11 16 17 15 14 16 16 11 9 10 15 16 15 14 13 12 10 11 9 10 10 9 10 9 10 12 13 12 10 9 8 6 4 1 2
4 3 1 3 3 10 13 4 12 16 19 19 20 15 9 12 16 11 13 15 15 13 9 8 15 16 14 13 12 11 11 10 9 10 11 10 9 9 12 12 12 10 9 8 7 5 5 3 5
3 3 2 4 5 2 9 5 11 13 18 14 19 15 8 9 15 14 14 12 13 13 11 7 6 11 13 13 11 13 13 12 13 14 13 13 10 12 12 11 11 10 9 7 6 7 6 6 5
6 4 6 1 6 3 10 2 13 11 14 20 22 9 9 14 13 12 10 13 11 10 9 8 6 5 5 5 12 13 14 14 15 14 12 12 13 13 11 8 9 9 8 7 8 7 6 6 6
10 4 2 4 8 3 14 5 11 9 14 14 11 22 21 20 16 16 12 11 10 8 8 6 7 6 5 6 7 11 15 14 13 10 8 5 3 6 8 7 9 9 9 10 9 9 9 8 9
8 4 6 3 6 4 12 8 11 10 18 20 24 21 20 18 15 17 15 12 8 9 8 6 6 6 6 6 4 3 5 4 3 3 4 3 2 3 7 8 11 11 11 10 10 10 12 11 4
8 5 2 13 12 18 20 12 11 11 11 20 23 22 22 18 15 14 11 12 12 9 7 8 8 6 7 5 3 2 2 3 3 3 3 3 3 3 3 2 1 2 7 4 6 7 6 7 6
7 9 15 9 9 12 5 1 4 10 5 20 19 20 20 19 14 18 16 12 13 8 9 10 8 7 6 4 3 4 3 3 3 4 3 3 3 3 4 3 5 4 4 4 5 4 6 8 10
5 3 6 15 14 7 8 2 6 4 4 20 19 15 19 18 17 15 17 15 12 10 13 10 9 7 5 5 4 3 3 3 3 1 3 1 3 1 4 5 2 1 3 4 7 6 6 7 6
13 9 8 11 8 1 4 8 7 7 12 21 19 16 11 20 18 15 17 16 15 12 12 11 9 7 6 4 5 3 3 4 2 3 0 2 3 2 5 3 2 2 3 6 6 6 4 4 4
17 10 5 4 9 3 17 6 3 8 8 19 18 16 13 16 19 21 20 20 18 14 14 13 12 10 7 7 6 5 5 4 2 3 3 4 4 2 2 4 1 3 4 6 2 3 5 3 3
8 7 5 6 2 2 6 3 5 16 7 13 16 16 13 17 15 15 17 20 17 16 17 14 12 12 10 8 7 5 4 4 4 3 3 5 2 6 5 2 5 1 5 2 4 1 4 7 2
6 5 1 7 8 5 3 7 15 15 13 17 14 13 15 11 12 10 13 19 18 16 15 14 12 13 12 8 5 5 4 4 6 4 4 4 5 8 6 3 3 5 3 3 2 1 3 4 3
5 6 7 4 3 13 12 8 9 15 15 12 8 15 15 17 13 15 12 23 18 16 16 13 11 11 8 6 4 2 2 2 4 7 6 7 5 6 7 4 5 2 3 1 2 3 1 1 1
7 11 8 8 13 9 21 10 14 12 13 8 6 13 15 16 13 15 14 22 20 16 16 15 12 12 8 4 4 2 3 3 3 3 8 7 5 4 6 5 4 3 5 4 2 1 2 1 2
14 13 8 6 10 9 12 16 15 16 8 10 8 9 17 15 17 15 13 20 20 18 17 17 11 11 10 6 4 3 4 3 5 4 9 7 6 5 5 3 2 5 2 3 2 1 2 3 2
10 3 10 9 20 22 9 3 18 5 13 18 13 8 14 14 17 15 19 17 18 16 14 17 15 11 10 7 4 3 3 1 3 2 5 5 7 7 6 4 3 1 2 1 2 3 1 1 3
7 6 7 15 8 6 6 5 8 14 14 16 19 14 14 10 19 15 18 17 19 18 15 12 17 14 9 8 5 5 4 3 4 4 4 5 5 7 6 6 4 4 2 0 2 3 2 1 3
8 6 6 4 8 6 8 1 3 10 12 14 13 18 19 15 22 18 20 21 21 18 18 14 16 14 10 8 7 6 4 3 3 4 5 4 4 6 7 6 6 4 3 3 2 2 4 0 1
7 6 8 6 1 2 10 6 5 10 14 13 12 17 21 19 19 20 21 18 20 19 17 16 15 15 11 9 7 8 8 6 2 3 5 4 4 4 5 6 6 6 5 4 3 2 3 3 2
5 1 4 5 5 7 5 4 8 8 8 15 18 15 23 20 15 17 17 12 14 18 18 17 17 15 13 12 8 8 8 7 7 4 5 5 2 1 6 5 5 4 5 5 4 3 3 3 2
7 10 7 7 5 6 5 4 8 9 19 17 10 16 19 21 18 20 15 16 18 16 19 19 18 16 15 12 9 7 7 4 5 6 4 5 5 5 5 6 6 7 6 6 5 3 3 4 4
9 5 12 6 7 1 4 6 6 2 7 16 16 7 11 16 15 15 14 12 15 16 20 20 19 16 17 14 11 9 8 7 6 7 6 6 5 4 6 7 8 7 7 7 7 5 5 4 4
10 8 3 3 4 5 5 4 6 4 9 3 8 12 6 1 7 1 10 14 15 16 16 18 18 19 17 14 13 10 11 8 7 6 8 8 8 9 8 6 6 6 7 7 7 6 6 5 4
3 6 4 2 4 7 6 7 8 14 16 11 9 13 13 5 0 5 8 14 17 18 17 17 16 16 15 15 12 12 11 11 8 7 6 7 6 7 7 8 8 8 7 6 7 7 7 7 5
9 12 9 6 10 5 6 8 7 11 10 21 15 9 9 7 8 8 28 21 18 17 15 17 16 14 14 14 13 12 11 11 11 10 9 7 8 7 7 7 7 7 7 8 9 9 8 7 7
Wind_Direction
164 142 170 59 11 40 282 68 69 50 83 80 69 76 79 55 75 138 132 129 129 125 126 120 125 129 124 117 118 117 117 116 113 110 97 109 110 109 111 106 112 111 110 111 111 111 114 116 104
159 131 55 92 52 291 265 79 67 71 106 96 92 103 80 77 80 116 119 131 127 126 119 119 126 126 123 119 119 122 121 116 110 107 95 109 105 109 103 113 112 111 115 113 115 111 108 107 104
53 347 54 62 41 268 307 114 94 60 104 106 84 76 82 122 86 102 118 126 130 124 116 130 126 122 122 115 115 116 116 117 118 103 97 106 103 108 106 119 118 115 116 112 110 111 111 117 124
142 39 57 358 247 258 255 77 100 95 103 108 122 56 78 109 113 128 133 130 108 119 120 131 127 121 117 115 113 120 122 119 121 113 116 122 116 109 118 120 118 115 112 117 121 121 118 106 1
162 121 103 297 300 274 301 302 104 82 89 87 88 103 92 95 103 112 123 125 118 119 127 124 127 126 117 113 118 122 128 127 119 119 122 126 117 123 129 120 120 121 118 123 128 128 128 90 313
71 135 128 193 135 303 305 235 94 102 104 101 101 107 104 115 116 119 118 125 131 129 118 116 124 116 116 118 116 122 125 116 109 108 113 124 128 134 128 128 129 124 132 131 131 155 166 190 255
219 121 293 124 190 304 264 324 132 134 126 117 125 109 122 114 120 122 129 126 131 132 124 123 112 125 118 123 121 125 118 119 116 112 117 121 128 137 137 134 134 136 145 153 176 198 199 210 242
96 73 36 288 195 225 260 267 120 95 126 136 132 135 138 131 122 119 101 124 109 121 137 153 146 140 121 124 119 123 121 124 113 121 130 136 139 137 142 144 143 153 164 189 210 225 236 256 268
77 356 333 191 183 195 265 252 92 120 140 134 104 124 134 135 130 119 117 110 122 132 142 138 141 157 138 120 128 126 127 125 123 126 125 148 99 137 146 172 169 177 188 217 225 239 252 257 263
115 183 238 225 161 72 307 320 147 112 101 101 111 124 136 144 138 132 136 138 140 149 158 158 151 143 143 116 113 116 135 110 114 136 217 189 218 179 156 172 188 199 206 231 245 254 259 262 249
158 196 217 174 135 138 231 307 107 94 120 135 136 144 144 146 149 143 142 143 150 159 136 144 129 122 121 127 148 146 125 136 157 199 216 234 248 201 157 138 243 302 232 249 247 244 255 255 245
117 305 124 256 163 158 202 179 97 123 151 139 142 149 150 155 165 156 149 158 153 157 131 137 130 130 138 141 162 159 159 176 191 198 189 233 197 202 125 162 216 209 243 248 268 243 230 237 244
114 117 6 216 167 220 157 151 161 147 202 140 143 156 158 166 168 158 151 156 160 149 147 153 146 149 153 157 163 175 193 195 221 317 232 102 109 345 171 203 264 100 263 240 254 256 265 247 244
116 47 341 341 52 97 139 189 96 337 118 143 150 165 183 176 168 150 154 156 163 156 153 153 153 153 159 181 184 175 197 235 206 240 238 32 112 226 244 220 51 260 268 245 229 250 268 264 280
135 114 299 49 9 351 345 56 13 298 305 151 161 176 180 153 144 165 167 165 166 166 154 162 163 160 169 199 191 189 208 226 239 221 248 164 113 55 229 97 53 247 245 268 78 2 0 325 253
105 73 11 8 356 256 329 221 197 253 293 262 173 178 164 142 159 161 165 164 165 166 155 162 167 170 180 204 207 202 198 186 221 199 221 189 191 88 39 344 236 143 328 4 69 294 334 321 190
55 87 92 300 152 127 190 246 214 220 226 242 180 171 158 152 158 152 159 155 160 158 157 167 171 174 187 195 193 198 212 179 200 191 194 204 210 122 124 260 258 71 299 17 80 69 53 300 29
154 145 230 120 261 186 224 230 235 216 218 206 181 152 157 160 170 171 177 152 156 165 164 172 172 171 182 173 182 214 233 200 197 184 179 195 208 161 138 233 292 272 190 274 259 41 294 303 116
232 150 160 223 251 207 242 203 219 204 221 198 193 160 162 164 168 168 157 148 158 167 168 178 176 173 167 170 155 212 237 218 187 174 184 184 226 180 151 174 229 242 175 213 254 199 280 126 197
263 160 197 228 263 228 258 200 196 183 209 193 195 184 165 174 167 172 157 152 165 170 161 178 176 162 167 178 163 175 196 206 206 163 171 177 189 219 171 223 225 8 88 221 275 339 344 345 56
270 260 131 153 228 221 263 19 174 183 146 234 189 192 180 171 162 166 165 165 162 165 167 162 168 162 170 189 154 192 201 98 82 114 161 189 187 199 183 180 240 201 58 353 267 286 17 281 300
275 237 237 160 157 226 221 228 211 172 181 223 194 187 189 174 170 169 170 176 168 170 171 159 164 171 173 184 174 179 179 161 160 152 179 188 202 192 189 202 197 207 178 268 267 299 239 151 300
245 284 287 253 186 178 272 150 289 147 206 208 202 191 197 193 175 174 176 182 173 171 172 168 168 173 181 181 179 185 181 186 151 163 183 187 206 205 192 197 203 202 230 217 263 285 332 191 60
265 318 305 305 201 191 230 193 209 194 204 192 215 207 194 193 183 181 178 180 172 175 172 169 167 178 183 184 191 190 184 189 123 178 184 186 195 224 222 202 195 196 211 213 232 277 269 284 291
190 209 322 330 338 237 13 27 12 261 227 202 200 194 194 182 175 168 162 153 151 177 175 175 169 180 187 186 188 191 198 186 169 171 174 149 168 249 254 219 190 184 199 205 206 244 249 260 256
242 172 169 224 222 237 343 156 200 214 231 249 212 221 190 181 181 166 158 177 152 179 179 178 179 175 184 190 190 189 195 188 182 188 173 180 193 205 218 252 192 184 199 213 215 198 227 246 255
252 247 216 238 264 292 221 285 288 304 209 229 228 123 149 167 170 156 174 185 191 189 184 178 179 182 183 186 191 184 193 197 196 202 173 194 206 229 209 210 186 193 201 207 202 195 226 239 267
173 235 286 304 238 262 234 241 230 219 174 264 145 139 67 27 137 88 218 180 177 185 180 173 178 181 183 185 188 193 194 195 196 204 208 195 193 209 202 204 187 192 208 208 205 208 222 217 249
217 256 263 197 173 196 253 247 217 190 207 118 80 119 158 238 84 37 249 226 183 181 171 172 178 181 181 187 186 193 191 196 196 214 217 208 212 204 202 186 190 207 203 220 207 204 218 209 224
196 196 200 150 283 246 192 267 318 196 117 124 114 119 93 170 190 316 226 193 165 163 160 170 177 179 182 185 190 194 195 195 194 206 212 212 208 208 183 189 202 210 213 208 203 210 215 216 228